DW7898 Weather Reports


time (UTC)temp
F
wind
direction
speed
knots
gust
knots
rain 1hr
in
rain 24hr
in
rain mn
in
humidity
%
barometer
mb
20260508094357 65 133 4.3 7.0 0.00 0.00 0.00 64 1015.7
20260508093338 65 160 2.6 7.8 0.00 0.00 0.00 63 1015.6
20260508092356 65 115 3.5 7.0 0.00 0.00 0.00 62 1015.6
20260508091338 65 128 2.6 7.0 0.00 0.00 0.00 65 1015.3
20260508090344 65 249 3.5 6.1 0.00 0.00 0.00 64 1015.3
20260508085345 65 273 2.6 4.3 0.00 0.00 0.00 63 1015.3
20260508084352 64 239 1.7 6.1 0.00 0.00 0.00 63 1015.3
20260508083353 64 0 0.9 3.5 0.00 0.00 0.00 62 1015.1
20260508082341 63 0 0.0 3.5 0.00 0.00 0.00 62 1015.0
20260508081349 63 16 0.0 3.5 0.00 0.00 0.00 63 1014.8
20260508080349 62 84 0.0 3.5 0.00 0.00 0.00 66 1014.7
20260508075350 61 85 0.9 4.3 0.00 0.00 0.00 69 1014.9
20260508074354 60 76 1.7 3.5 0.00 0.00 0.00 72 1014.8
20260508073354 59 23 0.0 5.2 0.00 0.00 0.00 75 1014.9
20260508072336 58 94 2.6 3.5 0.00 0.00 0.00 78 1014.8
20260508071357 57 63 1.7 4.3 0.00 0.00 0.00 80 1014.6
20260508070357 56 1 2.6 3.5 0.00 0.00 0.00 81 1014.4
20260508065357 56 24 1.7 3.5 0.00 0.00 0.00 82 1014.5
20260508064357 55 27 0.0 3.5 0.00 0.00 0.00 83 1014.5
20260508063343 54 65 0.9 2.6 0.00 0.00 0.00 83 1014.4
20260508062337 54 66 0.9 1.7 0.00 0.00 0.00 84 1014.5
20260508061339 54 66 0.0 2.6 0.00 0.00 0.00 84 1014.4
20260508060342 54 67 0.9 1.7 0.00 0.00 0.00 84 1014.4
20260508055341 53 67 0.9 2.6 0.00 0.00 0.00 84 1014.4
20260508054359 53 72 0.0 2.6 0.00 0.00 0.00 84 1014.3
20260508053356 53 73 0.0 1.7 0.00 0.00 0.00 84 1014.2
20260508052354 53 76 0.0 2.6 0.00 0.00 0.00 84 1014.0
20260508051337 53 132 0.0 1.7 0.00 0.00 0.00 84 1013.8
20260508050342 53 132 0.0 0.9 0.00 0.00 0.00 84 1013.9
20260508045344 53 132 0.0 0.9 0.00 0.00 0.00 83 1013.7
20260508044351 54 132 0.0 0.0 0.00 0.00 0.00 83 1013.8
20260508043355 54 132 0.0 0.9 0.00 0.00 0.00 83 1013.7
20260508042346 54 132 0.0 1.7 0.00 0.00 0.00 83 1013.7
20260508041351 54 132 0.9 2.6 0.00 0.00 0.00 82 1013.5
20260508040338 54 132 0.0 0.0 0.00 0.00 0.00 82 1013.4
20260508035351 54 132 0.0 0.0 0.00 0.00 0.00 82 1013.3
20260508034356 54 132 0.0 0.0 0.00 0.00 0.00 81 1013.4
20260508033338 55 132 0.0 1.7 0.00 0.00 0.00 81 1013.4
20260508032350 55 132 0.0 0.0 0.00 0.00 0.00 81 1013.4
20260508031356 55 132 0.0 0.9 0.00 0.00 0.00 80 1013.4
20260508030356 55 132 0.0 0.9 0.00 0.00 0.00 80 1013.5
20260508025354 56 132 0.0 1.7 0.00 0.00 0.00 80 1013.4
20260508024340 56 132 0.0 0.0 0.00 0.00 0.00 80 1013.4
20260508023343 56 132 0.0 0.0 0.00 0.00 0.00 80 1013.6
20260508022342 56 132 0.0 1.7 0.00 0.00 0.00 79 1013.5
20260508021350 56 132 0.9 2.6 0.00 0.00 0.00 79 1013.6
20260508020353 56 132 0.9 2.6 0.00 0.00 0.00 78 1013.7
20260508015349 57 132 0.0 0.9 0.00 0.00 0.00 77 1013.8
20260508014351 57 133 0.0 0.9 0.00 0.00 0.00 77 1013.9
20260508013337 57 133 0.0 0.9 0.00 0.00 0.00 77 1014.0
20260508012356 57 132 0.0 0.0 0.00 0.00 0.00 76 1014.0
20260508011358 57 132 0.0 1.7 0.00 0.00 0.00 76 1014.1
20260508010338 57 133 0.9 1.7 0.00 0.00 0.00 76 1014.2
20260508005355 57 133 0.0 0.0 0.00 0.00 0.00 76 1014.2
20260508004354 58 133 0.0 1.7 0.00 0.00 0.00 75 1014.2
20260508003356 58 133 0.0 0.9 0.00 0.00 0.00 74 1014.3
20260508002354 58 133 0.9 2.6 0.00 0.00 0.00 74 1014.3
20260508001340 58 133 0.0 0.0 0.00 0.00 0.00 74 1014.5
20260508000335 58 133 0.0 0.0 0.00 0.00 0.00 73 1014.6
20260507235359 58 133 0.0 0.0 0.00 0.00 0.00 73 1014.6
20260507234359 58 133 0.0 0.0 0.00 0.00 0.00 73 1014.7
20260507233342 58 133 0.0 0.0 0.00 0.00 0.00 72 1014.8
20260507232357 58 133 0.0 0.0 0.00 0.00 0.00 71 1014.7
20260507231337 58 133 0.0 0.9 0.00 0.00 0.00 71 1014.9
20260507230342 58 133 0.0 2.6 0.00 0.00 0.00 71 1015.0
20260507225338 58 133 1.7 2.6 0.00 0.00 0.00 71 1015.0
20260507224342 59 133 0.0 0.9 0.00 0.00 0.00 71 1015.2
20260507223348 59 133 0.0 1.7 0.00 0.00 0.00 72 1015.3
20260507222343 59 133 0.0 0.0 0.00 0.00 0.00 72 1015.3
20260507221350 59 133 0.0 1.7 0.00 0.00 0.00 72 1015.2
20260507220337 60 133 0.0 1.7 0.00 0.00 0.00 73 1015.2
20260507215358 59 134 0.0 0.9 0.00 0.00 0.00 72 1015.2
20260507214352 59 134 0.0 1.7 0.00 0.00 0.00 72 1015.2
20260507213356 60 134 2.6 3.5 0.00 0.00 0.00 72 1015.3
20260507212356 60 131 0.0 0.0 0.00 0.00 0.00 73 1015.2
20260507211357 60 131 0.0 1.7 0.00 0.00 0.00 73 1015.3
20260507210337 60 131 1.7 3.5 0.00 0.00 0.00 73 1015.2
20260507205338 61 131 2.6 4.3 0.00 0.00 0.00 72 1015.3
20260507204339 61 104 0.0 0.0 0.00 0.00 0.00 71 1015.1
20260507203340 61 104 0.0 0.0 0.00 0.00 0.00 71 1015.2
20260507202341 61 104 0.0 1.7 0.00 0.00 0.00 70 1015.2
20260507201355 61 105 0.0 1.7 0.00 0.00 0.00 68 1015.0
20260507200357 62 105 1.7 3.5 0.00 0.00 0.00 68 1014.8
20260507195353 62 109 0.9 2.6 0.00 0.00 0.00 67 1014.7
20260507194355 62 109 0.0 3.5 0.00 0.00 0.00 66 1014.6
20260507193353 63 111 1.7 3.5 0.00 0.00 0.00 65 1014.4
20260507192356 63 133 0.0 2.6 0.00 0.00 0.00 64 1014.3
20260507191357 63 123 0.0 1.7 0.00 0.00 0.00 63 1014.2
20260507190340 63 118 0.9 2.6 0.00 0.00 0.00 62 1014.0
20260507185359 63 118 0.0 2.6 0.00 0.00 0.00 61 1014.0
20260507184337 63 118 0.0 4.3 0.00 0.00 0.00 62 1013.9
20260507183341 63 137 0.9 3.5 0.00 0.00 0.00 63 1013.8
20260507182357 63 153 1.7 6.1 0.00 0.00 0.00 63 1013.5
20260507181340 63 139 0.9 6.1 0.00 0.00 0.00 64 1013.6
20260507180344 64 141 2.6 6.1 0.00 0.00 0.00 64 1013.4
20260507175345 64 100 3.5 8.7 0.00 0.00 0.00 64 1013.4
20260507174351 64 109 2.6 7.8 0.00 0.00 0.00 63 1013.4
20260507173356 65 168 3.5 6.1 0.00 0.00 0.00 62 1013.3
20260507172350 64 141 2.6 7.0 0.00 0.00 0.00 61 1013.3
20260507171357 64 85 4.3 7.0 0.00 0.00 0.00 62 1013.2
20260507170337 64 123 2.6 7.8 0.00 0.00 0.00 62 1013.1
20260507165357 64 140 3.5 7.8 0.00 0.00 0.00 62 1013.1
20260507164358 65 109 3.5 6.1 0.00 0.00 0.00 61 1013.1
20260507163343 65 113 4.3 7.0 0.00 0.00 0.00 61 1013.0
20260507162355 64 113 5.2 8.7 0.00 0.00 0.00 59 1012.9
20260507161339 65 107 1.7 10.4 0.00 0.00 0.00 59 1012.9
20260507160355 64 163 1.7 10.4 0.00 0.00 0.00 59 1012.9
20260507155352 64 127 5.2 11.3 0.00 0.00 0.00 60 1013.0
20260507154337 64 111 2.6 12.2 0.00 0.00 0.00 59 1013.1
20260507153345 65 81 4.3 11.3 0.00 0.00 0.00 58 1013.1
20260507152342 66 89 4.3 9.6 0.00 0.00 0.00 55 1013.2
20260507151350 66 114 1.7 9.6 0.00 0.00 0.00 56 1013.0
20260507150355 66 155 6.1 10.4 0.00 0.00 0.00 55 1013.2
20260507145352 66 106 1.7 7.8 0.00 0.00 0.00 54 1013.3
20260507144337 66 121 2.6 7.0 0.00 0.00 0.00 54 1013.1
20260507143339 66 130 1.7 9.6 0.00 0.00 0.00 54 1013.3
20260507142338 66 127 4.3 8.7 0.00 0.00 0.00 53 1013.3
20260507141357 66 118 4.3 9.6 0.00 0.00 0.00 53 1013.4
20260507140355 67 128 4.3 8.7 0.00 0.00 0.00 51 1013.3
20260507135348 66 134 7.0 13.0 0.00 0.00 0.00 51 1013.5
20260507134350 66 125 5.2 9.6 0.00 0.00 0.00 52 1013.8
20260507133339 66 112 4.3 10.4 0.00 0.00 0.00 51 1013.8
20260507132337 65 125 7.0 13.9 0.00 0.00 0.00 52 1014.0
20260507131337 65 83 7.8 13.9 0.00 0.00 0.00 53 1014.0
20260507130340 66 116 7.8 13.0 0.00 0.00 0.00 52 1014.0
20260507125354 66 241 2.6 12.2 0.00 0.00 0.00 53 1014.1
20260507124357 66 190 6.1 10.4 0.00 0.00 0.00 53 1014.2
20260507123340 66 76 3.5 13.0 0.00 0.00 0.00 55 1014.4
20260507122336 65 122 7.0 12.2 0.00 0.00 0.00 56 1014.4
20260507121340 66 130 7.8 13.0 0.00 0.00 0.00 55 1014.5
20260507120342 65 137 7.0 13.9 0.00 0.00 0.00 56 1014.4
20260507115342 65 156 5.2 13.9 0.00 0.00 0.00 57 1014.5
20260507114348 66 123 3.5 13.9 0.00 0.00 0.00 56 1014.4
20260507113358 67 180 3.5 9.6 0.00 0.00 0.00 56 1014.4
20260507112353 67 207 2.6 8.7 0.00 0.00 0.00 57 1014.4
20260507111354 66 121 3.5 10.4 0.00 0.00 0.00 58 1014.6
20260507110335 66 138 3.5 11.3 0.00 0.00 0.00 59 1014.7
20260507105355 66 122 4.3 9.6 0.00 0.00 0.00 58 1014.8
20260507104337 66 220 2.6 10.4 0.00 0.00 0.00 59 1014.9
20260507103339 66 199 5.2 10.4 0.00 0.00 0.00 58 1015.1
20260507102357 66 118 3.5 9.6 0.00 0.00 0.00 58 1015.1
20260507101358 65 142 2.6 10.4 0.00 0.00 0.00 59 1015.2
20260507100354 65 131 3.5 8.7 0.00 0.00 0.00 60 1015.2
20260507095353 64 164 1.7 7.8 0.00 0.00 0.00 61 1015.1